Regional Weather Roundup
Issued by NWS State College, PA

Home | Current Version | Previous Version | Graphics & Text | Print | Product List | Glossary Off
Versions: 1 2 3 4 5 6 7 8 9 10 11 12 13 14 15 16 17 18 19 20 21 22 23 24 25 26 27 28 29 30 31 32 33 34 35 36 37 38 39 40 41 42 43 44 45 46 47 48 49 50

000
ASUS41 KCTP 222010
RWRCTP

REGIONAL WEATHER ROUNDUP
NATIONAL WEATHER SERVICE STATE COLLEGE PA
300 PM EST SAT NOV 22 2014

Note: "fair" indicates few or no clouds below 12,000 feet with no
significant weather and/or obstructions to visibility.

* = STATION THAT DOES NOT REPORT PRECIPITATION /E.G. RAIN...SNOW...ETC/
    THUNDER OR FOG.

PAZ002>004-007>009-013>016-020>023-029>032-222100-
WESTERN PENNSYLVANIA

CITY           SKY/WX    TMP DP  RH WIND       PRES   REMARKS
ERIE           CLOUDY    43  36  76 S18       30.04S
MEADVILLE      CLOUDY    36  34  92 S7        30.08F FOG
FRANKLIN*      CLOUDY    36  32  87 S9        30.13S
NEW CASTLE       N/A     37  34  89 S7        30.15F
BEAVER COUNTY  CLOUDY    39  32  75 S8        30.15F
BUTLER*        CLOUDY    37  30  75 S5        30.17F
PITTSBURGH INT CLOUDY    45  31  58 SW15G21   30.16F
PITTSBURGH     CLOUDY    44  25  47 S10       30.16F
INDIANA*       CLOUDY    39  30  70 SW8       30.21F
LATROBE        CLOUDY    46  25  42 S14       30.21F
WASHINGTON CO* CLOUDY    48  28  46 S5        30.20S
$$

PAZ004>006-010>012-017>019-024>028-033>037-041-042-045-046-049>053-222100-
CENTRAL PENNSYLVANIA

CITY           SKY/WX    TMP DP  RH WIND       PRES   REMARKS
BRADFORD       CLOUDY    34  31  88 SW9G16    30.08F FOG
DUBOIS         CLOUDY    34  32  92 SW9       30.13F FOG
CLEARFIELD     CLOUDY    31  27  85 SW3       30.17F
JOHNSTOWN      CLOUDY    41  27  57 SW12      30.17F
ALTOONA        CLOUDY    44  23  43 SW8       30.20F
STATE COLLEGE  RAIN      32  21  64 W5        30.20S
WILLIAMSPORT   LGT RAIN  36  16  44 SE6       30.24F
SELINSGROVE    CLOUDY    38  15  39 S8        30.26F
FT INDIANTOWN  DRIZZLE   39  16  38 S7        30.28F
CAPITAL CITY   CLOUDY    43  15  32 SW7       30.29F
HARRISBURG     CLOUDY    41  16  36 S8        30.28F
YORK           CLOUDY    43  15  32 S6        30.28F
$$

PAZ038>040-043-044-047-048-054-055-060>062-067>071-222100-
EASTERN PENNSYLVANIA

CITY           SKY/WX    TMP DP  RH WIND       PRES   REMARKS
SCRANTON       CLOUDY    41  10  28 SW8       30.19F
MOUNT POCONO   CLOUDY    36   8  31 SW12G20   30.18F
ALLENTOWN      CLOUDY    42  12  29 SW12      30.28F
QUAKERTOWN*    CLOUDY    41  16  36 SW9       30.30S
READING        CLOUDY    43  14  31 S9        30.28F
LANCASTER      CLOUDY    42  14  32 S10       30.30F
COATESVILLE    MOCLDY    39  19  45 S6        30.31F
POTTSTOWN      CLOUDY    42  16  34 SW9       30.32F
BLUE BELL      CLOUDY    43  23  45 SW9       30.31S
DOYLESTOWN     CLOUDY    41  16  36 SW8       30.30F
WILLOW GROVE   NOT AVBL
NORTH PHILA    MOSUNNY   46  16  30 SW13G23   30.34F
PHILADELPHIA   PTSUNNY   46  17  31 SW17      30.34F
$$



USA.gov is the U.S. government's official web portal to all federal, state and local government web resources and services.